Theta_e
328 328 327 326 324 324 325 325 325 325 323 321 321 320 320 310 311 310 314 311 316 314 311 313 313 312 311 311 308 311 311 311 307 306 302 307 310 311 313 312 313 313 312 306 306 310 312 321 323 327 325 325 326 330
327 324 325 324 322 322 323 323 322 321 322 321 320 319 319 309 310 312 313 312 315 313 312 313 314 314 314 313 313 312 310 311 309 302 301 303 305 307 310 311 311 315 314 312 310 312 320 318 317 318 319 323 324 328
322 321 322 322 322 323 324 322 321 321 321 320 318 318 309 310 309 313 313 311 312 314 313 311 312 313 313 315 314 314 313 313 312 309 305 300 306 305 311 314 312 310 311 314 316 317 314 315 315 318 320 321 325 329
322 322 321 320 321 322 323 321 320 320 319 318 317 311 308 310 312 314 313 311 313 314 310 310 310 311 312 313 313 314 314 313 311 309 307 298 305 306 306 307 308 310 310 311 315 316 315 315 311 314 319 322 325 329
320 320 321 322 322 321 320 319 318 317 317 317 315 308 310 310 313 313 313 313 313 314 311 310 312 312 312 311 311 312 313 311 309 307 303 303 305 304 302 302 304 309 310 309 314 310 309 310 310 312 317 321 323 325
320 322 322 322 321 320 318 316 315 315 315 316 307 310 310 312 314 313 312 312 313 315 313 308 310 312 311 311 312 310 310 310 310 308 306 306 307 305 299 300 305 309 308 307 308 307 307 308 309 316 315 318 324 324
322 321 320 320 319 317 315 315 314 313 312 310 308 309 309 313 314 313 312 313 312 313 314 310 307 312 311 312 312 313 313 313 313 309 307 307 307 306 302 299 306 309 309 309 309 308 307 310 313 315 315 317 323 324
317 317 317 316 316 315 315 311 309 307 306 306 308 308 308 311 313 313 312 313 312 313 314 307 306 312 312 313 313 314 314 314 313 311 308 307 306 305 304 305 307 308 308 307 306 307 306 310 312 313 314 319 321 323
317 316 315 315 315 315 311 307 306 306 306 308 308 310 310 311 311 312 312 311 311 313 312 309 306 307 312 311 313 313 314 309 313 311 311 308 305 306 304 307 309 307 306 305 306 308 309 310 312 313 313 316 318 321
318 316 315 317 317 312 308 307 306 307 309 310 311 311 311 312 311 311 311 311 310 311 311 309 310 309 311 311 311 313 313 309 311 314 311 310 310 308 309 308 306 307 306 306 306 308 311 312 312 311 311 313 316 318
315 315 314 312 308 306 306 308 309 309 310 311 312 313 312 311 311 312 311 310 310 309 311 311 312 310 310 309 310 312 310 310 312 314 314 313 308 306 306 306 306 306 306 307 308 309 310 310 310 309 311 312 314 316
311 310 310 308 306 309 309 308 308 310 312 313 312 311 311 311 312 312 308 310 309 310 310 310 312 314 311 313 313 312 313 311 317 312 314 315 307 307 306 306 306 305 305 306 308 308 308 308 308 309 310 311 314 316
315 314 311 307 309 310 308 308 312 313 312 312 312 312 312 312 310 312 311 310 310 310 312 313 312 315 314 315 315 314 315 316 313 315 316 309 306 306 306 306 306 306 306 306 306 307 307 308 308 309 309 311 314 314
314 310 307 306 310 308 309 312 312 313 315 315 314 310 311 313 311 311 312 311 312 312 313 315 313 314 314 314 314 316 312 312 316 317 315 306 307 306 306 306 307 306 306 305 305 305 307 307 309 309 311 312 313 312
307 309 308 308 309 308 310 312 312 313 314 314 314 316 314 314 315 314 315 315 316 316 317 317 316 315 314 315 314 314 316 316 314 314 309 308 308 306 306 307 307 307 306 306 306 306 305 305 307 307 308 307 306 305
308 312 310 309 308 309 310 311 312 313 314 314 311 313 311 314 312 312 311 312 311 313 314 316 315 316 316 316 316 316 316 314 310 307 310 309 308 307 306 307 307 307 307 307 307 306 306 306 306 305 305 305 305 304
312 313 310 308 309 309 312 312 314 313 311 311 311 310 310 311 311 311 311 310 310 310 313 312 312 309 313 313 312 312 314 312 312 309 308 309 308 307 307 307 307 307 308 308 307 307 307 307 307 306 305 305 305 305
314 312 310 309 310 311 313 313 312 311 310 310 310 310 310 310 310 310 310 311 311 308 306 305 305 306 308 311 311 311 311 311 308 308 309 308 308 307 307 308 308 307 305 304 304 305 306 307 307 307 306 305 304 305
312 311 309 310 311 312 313 312 312 310 310 310 310 311 310 309 308 308 310 312 311 309 307 307 306 307 307 306 309 309 310 309 309 308 308 308 308 309 308 308 307 306 305 304 304 304 304 305 306 307 307 306 306 306
312 311 310 311 312 312 311 312 313 311 311 310 311 311 309 309 310 311 311 310 308 307 307 309 308 306 307 308 309 309 309 309 309 308 307 307 306 306 307 307 305 304 303 303 303 304 304 304 303 303 306 306 306 306
311 311 312 312 312 313 314 312 312 310 310 310 311 310 309 308 308 308 307 308 307 306 306 306 306 306 308 309 308 307 309 309 307 307 307 308 308 308 307 306 306 305 304 303 303 303 303 303 303 302 302 302 302 304
312 311 311 312 313 314 314 314 313 311 310 310 310 310 309 309 308 308 307 307 307 307 308 308 308 308 306 305 307 307 307 307 307 307 307 305 304 303 302 302 302 303 303 303 303 302 302 302 303 302 303 303 302 304
311 311 311 311 313 314 314 314 313 312 309 310 309 308 308 309 309 308 307 307 306 307 308 308 308 306 306 306 305 304 303 303 303 303 303 303 303 303 303 302 302 303 304 303 303 302 302 302 302 303 303 303 302 302
312 312 314 314 313 313 316 315 315 313 311 309 309 310 309 308 308 307 302 307 306 307 307 307 307 307 307 306 305 304 304 304 303 303 304 303 302 302 303 302 302 302 303 303 302 301 301 302 302 302 302 302 302 302
313 314 314 313 314 315 315 314 314 313 311 309 310 307 307 307 304 305 302 307 307 307 307 306 306 305 305 306 305 305 305 304 304 304 303 303 302 302 302 302 302 302 302 302 302 302 302 302 302 302 302 302 301 301
313 314 314 315 315 316 315 315 315 313 311 312 310 308 308 306 307 306 304 308 307 307 306 305 305 305 306 305 305 305 306 306 304 304 304 303 303 303 302 302 302 302 302 302 302 302 301 301 301 301 300 300 300 300
313 315 317 318 317 317 316 315 314 312 312 313 309 308 309 312 311 308 309 308 306 304 304 305 306 306 306 306 306 304 305 304 303 303 303 303 302 302 302 302 301 301 301 301 301 301 301 301 300 300 300 301 300 301
317 319 312 311 312 311 309 309 311 311 310 311 310 310 311 311 310 310 309 308 306 306 308 308 308 308 308 307 305 304 304 302 302 303 303 301 300 300 300 300 300 300 300 300 301 301 301 301 301 301 301 301 301 302
318 320 312 309 310 312 311 310 310 311 311 311 308 307 309 310 310 310 308 308 307 307 308 308 308 307 307 307 304 304 303 301 301 301 301 301 302 302 302 302 302 301 301 301 301 301 301 301 301 301 301 301 301 302
320 314 311 311 310 310 311 310 309 310 310 310 310 310 309 309 309 308 307 307 307 307 307 306 306 304 304 303 303 303 302 302 302 303 303 303 303 303 303 303 303 303 303 302 302 302 303 302 302 302 302 302 302 301
313 312 311 310 310 310 310 309 309 308 307 308 307 306 306 308 309 308 306 307 308 307 306 305 304 303 303 303 303 303 302 303 304 304 303 303 303 303 303 303 303 303 302 302 302 302 302 302 302 302 302 302 301 301
312 312 311 309 310 310 309 310 310 309 308 308 308 306 307 307 307 307 306 307 307 307 306 305 304 303 303 304 304 304 303 303 303 304 304 303 303 303 303 303 302 302 302 302 302 303 303 302 302 302 302 302 302 301
312 312 311 310 310 309 310 311 310 309 309 309 309 307 308 308 308 307 306 307 307 307 306 306 307 305 304 303 303 303 303 303 303 303 304 304 303 303 303 302 302 302 302 302 302 302 302 301 301 302 302 302 301 300
Wind_Speed
26 26 25 25 26 25 26 28 31 27 21 17 18 16 16 12 11 13 9 7 5 2 5 6 6 8 8 8 5 8 4 2 4 4 3 3 2 4 1 2 1 1 1 3 2 2 6 14 2 3 7 8 10 9
27 28 28 28 29 31 31 27 25 25 18 16 17 16 16 12 13 13 10 10 8 3 6 10 10 7 4 8 12 10 4 5 6 4 1 2 1 1 1 2 1 2 1 2 4 2 4 8 8 9 9 9 13 6
30 31 32 31 32 33 32 26 23 21 16 15 16 16 14 12 14 14 11 11 8 5 6 6 8 7 4 5 7 7 6 7 6 6 7 3 2 3 4 4 3 2 1 3 3 3 3 8 4 14 16 14 13 9
33 33 33 32 31 32 31 24 21 16 14 15 16 19 13 16 15 13 11 9 9 4 4 2 7 7 5 3 3 4 5 13 14 8 4 3 3 5 3 2 3 4 2 2 5 2 3 8 12 18 13 14 11 7
33 31 30 32 34 31 26 20 17 12 15 18 20 16 17 19 16 13 8 8 9 3 4 7 11 12 8 4 7 7 10 18 12 5 3 2 4 3 1 2 3 6 3 2 2 2 2 9 13 15 11 13 11 8
31 32 33 30 27 22 15 11 10 13 17 23 19 17 18 20 16 11 4 7 7 6 4 2 4 11 14 13 14 13 13 12 4 4 4 4 3 3 3 2 4 8 9 4 5 7 12 18 17 9 8 10 7 8
32 30 26 21 17 10 7 12 13 18 20 18 14 14 17 18 15 5 2 3 10 7 3 4 3 8 16 18 12 9 9 5 3 4 2 4 2 4 2 2 3 9 7 9 11 12 11 9 6 6 8 8 4 5
20 16 11 6 4 11 17 20 17 15 14 13 14 15 15 15 12 6 1 1 7 6 2 3 1 5 17 5 5 6 4 4 3 4 5 4 5 2 3 8 4 6 9 13 15 17 15 10 6 4 8 6 3 1
7 1 5 10 16 22 19 15 13 12 12 16 17 15 13 8 5 5 4 3 6 3 3 2 5 4 16 5 5 5 5 2 4 2 4 8 2 4 6 6 4 6 9 12 8 10 9 8 8 7 5 4 6 3
10 13 16 20 19 16 14 12 10 14 20 21 17 3 4 7 9 8 3 3 3 3 3 3 5 3 13 6 3 5 2 3 2 2 9 3 3 3 7 6 3 9 10 1 2 5 5 5 7 7 5 4 8 5
15 19 19 16 12 9 8 12 21 23 21 8 3 3 10 12 4 2 2 2 0 2 4 3 10 5 10 4 3 4 3 2 2 3 3 2 3 6 13 6 4 8 4 2 2 2 5 4 5 4 1 4 8 8
13 14 12 9 7 9 20 22 22 17 4 4 8 11 8 2 2 2 1 1 1 3 3 4 5 6 9 8 5 5 3 2 3 10 2 2 2 16 17 11 10 10 7 5 5 4 3 4 5 6 4 7 6 7
9 10 7 6 8 18 21 20 10 9 12 6 3 3 1 1 3 3 3 1 2 3 3 3 3 7 6 5 6 3 4 3 9 3 3 4 9 24 19 16 15 16 12 7 5 4 7 5 5 5 6 7 5 10
8 6 4 5 13 19 19 10 9 7 3 1 1 1 2 2 2 3 1 2 4 5 5 6 4 6 4 3 3 4 2 4 3 3 5 4 26 30 23 19 15 16 14 15 18 14 13 14 7 3 6 5 11 11
4 3 4 8 17 19 11 6 6 2 2 2 1 0 1 4 3 6 8 7 7 7 7 2 2 5 2 4 1 3 5 4 4 4 2 15 34 33 26 20 15 14 12 10 12 15 20 12 19 16 13 14 15 14
3 4 7 14 20 14 7 3 3 2 3 4 5 2 9 1 4 6 7 7 11 11 10 7 4 2 2 4 4 5 6 5 3 3 4 25 35 31 25 20 14 10 7 6 6 8 12 14 18 16 18 19 16 17
2 4 11 19 17 9 6 5 3 4 4 4 4 5 6 4 5 7 9 8 10 6 2 2 3 4 0 3 3 1 2 1 1 4 19 30 28 26 22 17 12 7 4 2 3 4 2 3 7 11 12 16 16 11
4 10 16 17 10 8 5 4 3 3 2 2 2 3 7 8 11 11 8 10 9 3 3 2 2 3 2 2 1 1 7 11 11 19 23 22 22 19 15 13 11 6 6 6 5 2 4 7 5 6 8 6 11 11
9 16 19 15 8 3 2 2 2 2 2 1 4 7 7 10 11 10 5 4 4 5 7 3 2 1 2 2 9 16 21 24 25 20 16 16 17 18 18 13 9 7 6 4 6 11 10 9 7 8 8 9 8 11
16 19 17 9 4 3 2 2 2 2 1 1 3 6 6 13 11 10 10 7 5 3 5 3 3 8 13 15 10 12 19 20 23 23 18 16 15 19 16 8 8 7 8 9 7 9 10 10 10 9 6 7 5 7
20 16 10 6 4 2 1 2 1 1 2 1 2 4 4 9 17 17 13 14 11 6 6 7 10 12 10 4 9 11 14 17 19 22 25 19 15 15 12 9 6 6 8 6 9 8 6 5 6 8 9 7 4 4
15 11 7 2 2 2 2 2 1 3 1 1 1 2 2 4 6 11 12 10 5 6 6 11 8 5 13 16 16 17 17 17 16 15 14 13 12 10 9 7 4 7 9 8 11 8 5 4 4 2 5 3 3 5
10 5 2 1 1 0 2 5 0 3 1 2 1 1 2 2 3 4 4 4 3 9 9 10 13 16 15 14 14 14 14 13 12 10 8 7 5 6 10 7 4 4 12 11 7 4 3 4 4 5 3 2 2 5
4 1 1 2 3 2 3 4 3 4 3 2 1 1 0 1 1 3 1 2 9 11 11 14 14 12 10 8 8 9 9 8 7 6 4 4 5 5 10 6 6 5 4 8 8 6 7 7 4 5 4 4 5 4
1 2 2 3 4 3 4 4 3 3 3 3 3 1 3 4 2 1 2 5 12 12 14 12 11 10 9 6 6 6 7 3 4 8 6 6 9 9 9 10 10 9 6 7 5 6 5 8 8 4 3 5 4 2
3 5 7 7 4 4 5 3 5 6 3 4 4 5 5 3 2 4 4 16 19 18 18 17 14 10 8 6 4 6 6 6 5 6 6 6 6 1 5 8 8 7 7 5 4 6 5 5 3 5 2 3 3 3
3 5 6 7 4 3 3 4 3 3 5 4 4 4 3 3 5 4 6 22 25 21 18 15 12 10 9 7 3 3 6 5 4 4 7 9 6 5 5 3 4 5 6 6 5 4 4 4 4 4 2 2 4 3
6 4 3 2 5 3 3 2 1 2 1 4 10 4 4 4 3 5 6 23 25 22 17 14 9 5 7 6 6 7 9 5 9 13 13 9 10 10 10 9 8 8 8 9 8 7 5 2 1 2 4 3 2 6
5 3 2 0 2 3 3 1 0 1 1 6 5 2 2 1 4 5 15 25 25 21 17 13 10 9 9 10 11 13 8 14 17 17 16 14 12 11 10 9 7 6 5 5 4 3 2 2 3 4 5 5 6 5
4 6 2 2 2 0 2 3 4 5 4 4 4 6 6 5 6 13 22 27 25 20 14 12 13 14 14 16 18 15 12 14 11 12 13 12 11 9 8 7 5 4 4 4 5 6 6 7 7 8 9 10 8 3
5 5 3 2 2 3 6 7 7 9 9 7 6 11 10 7 11 17 22 24 22 18 16 17 17 14 16 17 17 17 18 15 12 10 8 6 8 5 6 7 7 7 6 5 5 6 6 6 8 9 9 8 5 3
7 4 6 3 3 7 8 5 3 3 5 5 5 10 11 6 7 17 24 25 21 20 19 18 16 17 18 16 14 12 10 9 9 8 8 10 11 13 11 8 5 5 4 3 5 9 4 4 5 7 7 7 6 6
4 5 4 4 4 5 6 4 5 4 5 6 8 16 13 9 7 13 23 28 28 24 21 19 17 15 14 14 13 11 9 8 10 11 10 10 9 10 9 8 6 4 3 2 3 4 1 2 3 2 0 0 1 2
Wind_Direction
304 301 300 301 300 301 302 301 296 288 282 282 253 234 219 194 216 195 201 195 192 152 83 109 141 152 146 159 139 159 90 12 59 75 117 200 150 222 168 233 248 277 288 202 123 221 267 0 27 104 332 321 349 12
298 301 299 300 302 303 304 303 297 288 265 259 237 227 194 199 199 186 189 192 183 168 125 110 109 115 134 192 157 150 152 140 154 94 156 105 109 89 134 263 286 248 160 256 201 231 24 25 71 43 18 18 350 5
299 299 299 299 300 300 302 296 288 281 251 240 213 201 168 191 182 182 189 189 180 162 130 153 148 133 97 128 150 137 172 162 164 136 142 151 136 138 175 219 193 264 17 250 333 171 27 353 344 41 36 20 359 56
298 298 298 302 301 300 297 286 279 265 238 197 188 166 168 173 170 178 186 192 195 160 122 131 151 149 138 163 231 232 202 168 152 134 102 129 141 186 208 222 192 192 109 302 268 226 55 229 359 18 18 28 39 61
299 301 300 299 300 298 292 281 262 225 190 174 164 158 168 163 163 162 169 174 194 174 151 134 140 138 131 103 135 140 169 158 138 105 87 149 140 126 78 46 257 181 175 219 307 345 320 275 324 351 358 6 22 45
297 297 296 294 295 291 280 253 197 179 176 172 155 157 161 164 160 151 160 202 191 158 148 131 134 157 147 136 117 120 136 134 112 104 111 118 142 142 118 206 247 189 185 216 266 311 290 287 314 354 338 331 25 48
295 295 292 291 288 273 208 162 164 154 135 134 147 154 159 164 166 156 153 173 190 177 165 93 79 153 157 141 132 131 131 122 105 107 100 129 137 166 124 207 211 207 236 261 276 296 308 277 291 314 339 339 348 49
301 301 295 282 190 147 140 132 129 130 137 141 143 144 152 165 177 195 235 173 175 174 167 117 118 142 174 162 145 158 144 136 108 126 145 133 137 169 242 237 223 232 275 281 273 258 245 256 298 311 318 312 308 298
305 296 121 126 130 130 132 132 137 143 141 136 133 129 131 152 151 191 209 182 173 169 169 155 144 204 175 156 136 152 170 89 148 151 189 149 149 226 226 211 223 283 290 286 259 226 241 236 240 224 271 287 276 291
111 119 126 128 131 129 133 144 149 143 135 131 129 107 113 138 135 129 120 164 170 221 214 206 164 154 169 151 133 122 134 140 163 201 147 214 235 228 192 173 265 316 320 318 262 196 210 195 194 224 241 255 252 280
107 118 117 118 124 135 147 145 138 135 133 128 101 71 128 134 126 117 103 92 297 312 222 232 198 140 183 142 148 194 162 127 172 188 196 230 276 189 163 143 49 18 82 54 131 157 196 221 225 245 209 247 249 236
117 116 111 107 103 124 133 135 135 135 127 118 113 117 133 134 103 104 146 31 161 239 228 199 221 184 158 160 122 175 126 111 232 151 184 254 247 164 152 124 84 74 100 77 58 32 336 270 260 254 231 236 242 232
122 129 124 107 121 139 139 138 136 127 123 115 99 104 117 69 59 170 185 252 280 232 233 221 209 180 158 164 104 118 157 192 124 177 218 218 162 160 148 128 103 86 95 97 72 55 6 309 285 239 233 221 215 182
131 134 134 121 148 148 148 140 135 132 46 53 82 60 174 145 241 198 239 221 265 237 274 245 227 195 171 90 137 141 191 127 194 214 220 184 171 165 156 142 122 110 104 91 74 73 66 66 110 176 176 204 173 158
136 150 158 154 158 157 152 150 159 69 34 52 359 4 115 345 311 344 341 331 321 297 246 217 238 200 157 119 172 136 173 194 213 225 226 177 169 167 165 160 149 131 116 105 86 74 67 68 66 83 123 136 130 119
130 129 148 158 160 160 167 165 164 7 29 29 35 9 357 325 24 5 348 341 350 328 269 205 185 230 170 145 183 199 165 188 235 208 196 167 168 170 170 171 168 158 150 132 97 78 81 81 67 87 114 112 115 112
155 129 151 155 163 165 108 92 65 47 40 30 13 358 346 299 301 328 327 338 344 348 32 53 153 203 345 162 126 22 121 138 253 148 159 163 167 171 171 167 169 178 198 206 190 214 188 127 103 81 86 122 116 106
132 144 150 151 139 111 73 53 70 64 82 19 11 348 334 303 301 316 300 299 345 66 45 61 9 36 73 74 101 111 113 130 126 134 140 162 165 163 161 157 152 142 131 117 117 146 171 194 202 130 106 131 137 135
133 143 145 142 131 85 70 58 65 109 90 49 331 350 351 342 346 331 357 48 78 96 114 103 64 338 69 44 89 80 100 103 113 124 131 144 152 150 140 140 140 152 156 119 107 119 114 110 134 177 166 142 133 113
135 140 142 128 81 54 49 69 63 73 90 65 1 2 14 14 29 67 65 42 30 67 53 45 58 108 107 121 94 120 124 132 128 113 108 109 108 127 131 148 133 123 142 133 128 125 115 108 93 87 118 161 179 179
136 130 118 115 100 93 95 115 118 84 129 37 16 21 14 36 43 39 44 70 59 38 62 136 130 129 119 87 118 117 134 141 140 134 143 151 154 160 161 168 174 137 139 159 159 135 136 130 121 122 127 126 118 193
140 143 143 116 55 78 64 92 89 126 107 143 81 32 27 6 10 22 49 54 57 76 120 145 141 98 105 103 108 111 119 123 126 128 130 131 136 140 151 153 176 183 166 140 167 162 161 175 202 214 164 111 108 135
148 143 147 132 72 115 141 165 125 175 119 200 143 74 36 15 21 23 67 46 71 101 112 118 119 129 123 123 121 123 128 129 128 123 121 120 134 150 158 139 135 157 175 169 164 170 156 194 175 180 222 299 153 141
141 181 216 211 211 202 169 198 202 172 145 173 161 136 239 151 57 65 91 124 147 135 137 140 140 141 144 138 140 132 136 150 159 167 178 183 168 171 179 175 150 127 184 180 162 164 157 148 144 158 174 246 240 182
262 234 210 230 206 200 218 170 183 181 215 184 167 185 198 159 88 118 199 185 179 172 164 159 158 155 149 145 150 158 169 146 177 183 188 193 191 184 180 179 178 175 183 183 189 189 169 157 158 164 206 225 234 229
247 220 202 200 204 207 193 198 196 195 158 181 206 148 156 135 154 226 219 188 184 180 177 171 169 170 160 144 167 210 226 221 191 194 206 193 205 199 204 173 157 153 166 183 189 169 164 158 165 160 128 136 176 191
272 260 231 223 225 218 221 233 194 166 180 190 158 162 153 198 221 229 192 180 179 175 171 175 184 199 204 191 195 198 171 157 186 231 151 130 105 82 77 138 148 140 137 142 153 152 145 124 133 156 167 157 157 170
252 269 222 188 207 221 172 153 149 182 152 145 144 179 196 210 240 170 171 178 176 169 167 171 180 206 208 175 179 167 159 162 148 143 144 141 127 114 110 109 118 127 132 138 142 143 146 143 220 251 250 259 255 290
247 244 213 18 63 52 39 63 12 45 54 178 166 184 174 82 130 156 158 167 168 170 177 185 204 203 199 175 162 164 151 145 142 148 150 150 147 143 143 143 139 136 141 153 166 180 218 274 298 314 321 316 320 311
243 183 143 82 83 34 35 65 58 40 69 108 114 116 99 104 140 154 158 165 171 174 178 176 178 181 169 161 166 170 169 164 161 157 162 168 163 163 176 186 197 212 238 260 266 264 265 271 274 275 290 307 321 307
174 156 114 116 135 123 132 120 94 86 85 77 105 125 113 100 131 157 164 167 171 177 178 177 178 172 166 164 170 176 184 186 189 194 202 187 179 204 258 257 261 259 246 246 269 287 277 259 263 266 265 266 251 246
186 171 150 133 149 158 162 170 171 132 142 128 131 146 140 134 145 169 178 181 185 188 187 185 184 186 185 183 183 189 193 196 213 223 249 263 270 274 247 222 208 179 202 295 324 334 313 217 245 277 274 277 264 273
135 154 133 123 132 169 180 180 198 177 188 199 194 190 183 184 182 190 196 199 198 200 202 202 202 201 199 195 198 209 225 247 262 251 254 255 233 209 206 209 213 218 251 276 334 331 312 308 305 300 301 121 307 315